{"data":{"norad_id":38044,"epoch":"2026-05-25T04:23:23.938944Z","epoch_age_seconds":59442,"freshness":"FRESH","line1":"1 38044U 11080E   26145.18291596 -.00000091  00000+0  71734-4 0  9994","line2":"2 38044  52.0143  38.4713 0000654  58.2231 107.6117 12.62268561666806","mean_motion":12.62268561,"eccentricity":6.54e-5,"inclination_deg":52.0143,"raan_deg":38.4713,"arg_perigee_deg":58.2231,"mean_anomaly_deg":107.6117,"bstar":7.1734e-5,"rev_number":66680,"period_min":114.08031891876,"perigee_km":1413.0852643585,"apogee_km":1414.1044228836,"semimajor_km":7791.731843621,"source":"CELESTRAK","updated_at":"2026-05-25T13:38:23.045658Z"}}